FW5778 Weather Reports


Display with metric or nautical units.
time (UTC)temp
F
wind
direction
speed
MPH
gust
MPH
rain 1hr
in
rain 24hr
in
rain mn
in
humidity
%
barometer
mb
20200401101015 42 316 5.0 12.0 0.00 0.00 0.00 75 1009.8
20200401100514 42 319 5.0 12.0 0.00 0.00 0.00 76 1009.8
20200401100015 43 328 7.0 12.0 0.00 0.00 0.00 77 1009.8
20200401095511 43 333 6.0 12.0 0.00 0.00 0.00 77 1009.8
20200401095009 43 330 7.0 13.0 0.00 0.00 0.00 76 1009.8
20200401094535 43 340 6.0 13.0 0.00 0.00 0.00 75 1009.8
20200401094004 43 22 7.0 13.0 0.00 0.00 0.00 73 1010.0
20200401093508 44 328 5.0 11.0 0.00 0.00 0.00 73 1009.8
20200401093003 44 357 5.0 11.0 0.00 0.00 0.00 73 1009.8
20200401092508 44 314 6.0 14.0 0.00 0.00 0.00 74 1009.9
20200401092006 44 343 7.0 12.0 0.00 0.00 0.00 75 1009.8
20200401091001 44 325 7.0 12.0 0.00 0.00 0.00 75 1009.8
20200401090604 44 328 5.0 10.0 0.00 0.00 0.00 74 1009.8
20200401090121 45 33 5.0 12.0 0.00 0.00 0.00 74 1009.8
20200401085557 45 310 6.0 12.0 0.00 0.00 0.00 73 1009.9
20200401085059 45 347 4.0 12.0 0.00 0.00 0.00 72 1009.9
20200401084648 45 15 5.0 13.0 0.00 0.00 0.00 72 1010.0
20200401084054 46 23 5.0 12.0 0.00 0.00 0.00 72 1010.0
20200401083553 46 37 7.0 13.0 0.00 0.00 0.00 72 1010.0
20200401083237 46 8 6.0 13.0 0.00 0.00 0.00 72 1010.1
20200401082617 46 345 7.0 14.0 0.00 0.00 0.00 71 1010.0
20200401082049 46 334 8.0 15.0 0.00 0.00 0.00 71 1010.0
20200401081704 47 26 8.0 15.0 0.00 0.00 0.00 70 1010.1
20200401081049 47 32 5.0 10.0 0.00 0.00 0.00 69 1010.0
20200401080546 47 11 4.0 11.0 0.00 0.00 0.00 69 1010.0
20200401080206 47 340 5.0 10.0 0.00 0.00 0.00 68 1009.9
20200401075543 47 21 4.0 13.0 0.00 0.00 0.00 67 1009.9
20200401075046 48 32 6.0 13.0 0.00 0.00 0.00 65 1009.8
20200401074621 48 12 7.0 13.0 0.00 0.00 0.00 64 1009.8
20200401074039 48 37 4.0 9.0 0.00 0.00 0.00 63 1009.7
20200401073615 49 27 5.0 11.0 0.00 0.00 0.00 61 1009.8
20200401073136 49 60 4.0 17.0 0.00 0.00 0.00 60 1009.5
20200401072537 49 11 7.0 21.0 0.00 0.00 0.00 60 1009.3
20200401072201 49 323 6.0 13.0 0.00 0.00 0.00 59 1009.3
20200401071919 49 92 4.0 12.0 0.00 0.00 0.00 62 1009.7
20200401071036 49 126 5.0 12.0 0.00 0.00 0.00 61 1009.6
20200401070559 49 276 4.0 14.0 0.00 0.00 0.00 60 1009.2
20200401070121 49 325 6.0 15.0 0.00 0.00 0.00 60 1008.7
20200401065531 49 295 7.0 18.0 0.00 0.00 0.00 59 1008.7
20200401065033 49 296 9.0 18.0 0.00 0.00 0.00 58 1008.8
20200401064637 50 314 8.0 16.0 0.00 0.00 0.00 58 1008.8
20200401064025 50 323 8.0 16.0 0.00 0.00 0.00 57 1008.9
20200401063535 50 333 8.0 17.0 0.00 0.00 0.00 56 1008.9
20200401063049 51 292 8.0 17.0 0.00 0.00 0.00 54 1008.9
20200401062528 51 347 6.0 15.0 0.00 0.00 0.00 54 1008.7
20200401062020 52 326 8.0 14.0 0.00 0.00 0.00 54 1008.7
20200401061631 52 333 8.0 14.0 0.00 0.00 0.00 51 1008.7
20200401061017 53 321 7.0 17.0 0.00 0.00 0.00 51 1008.6
20200401060515 54 333 8.0 17.0 0.00 0.00 0.00 49 1008.6
20200401060031 56 18 5.0 14.0 0.00 0.00 0.00 38 1008.6
20200401055513 56 339 4.0 9.0 0.00 0.00 0.00 37 1008.5
20200401055013 57 4 4.0 9.0 0.00 0.00 0.00 36 1008.6
20200401054600 57 311 5.0 10.0 0.00 0.00 0.00 36 1008.5
20200401054018 57 13 4.0 11.0 0.00 0.00 0.00 35 1008.6
20200401053513 58 302 4.0 12.0 0.00 0.00 0.00 35 1008.8
20200401053013 58 194 2.0 12.0 0.00 0.00 0.00 33 1008.8
20200401052516 59 288 2.0 12.0 0.00 0.00 0.00 34 1008.8
20200401052015 59 278 5.0 12.0 0.00 0.00 0.00 34 1008.6
20200401051519 60 241 3.0 12.0 0.00 0.00 0.00 33 1008.4
20200401051036 60 277 5.0 19.0 0.00 0.00 0.00 31 1008.3
20200401050513 59 281 11.0 17.0 0.00 0.00 0.00 32 1008.2
20200401050038 58 186 4.0 11.0 0.00 0.00 0.00 36 1008.4
20200401045515 58 199 4.0 7.0 0.00 0.00 0.00 36 1008.5
20200401045009 58 130 3.0 8.0 0.00 0.00 0.00 36 1008.4
20200401044514 58 159 3.0 9.0 0.00 0.00 0.00 35 1008.5
20200401044014 58 212 3.0 9.0 0.00 0.00 0.00 36 1008.5
20200401043508 58 153 5.0 9.0 0.00 0.00 0.00 36 1008.6
20200401043009 59 155 5.0 12.0 0.00 0.00 0.00 35 1008.7
20200401042524 59 161 6.0 19.0 0.00 0.00 0.00 35 1008.7
20200401042011 59 167 8.0 19.0 0.00 0.00 0.00 35 1008.8
20200401041004 59 193 3.0 9.0 0.00 0.00 0.00 34 1009.0
20200401040508 59 151 3.0 9.0 0.00 0.00 0.00 34 1009.0
20200401040010 59 163 2.0 10.0 0.00 0.00 0.00 33 1009.0
20200401035510 59 138 2.0 5.0 0.00 0.00 0.00 33 1009.2
20200401035003 59 258 1.0 3.0 0.00 0.00 0.00 32 1009.3
20200401034507 60 271 1.0 2.0 0.00 0.00 0.00 32 1009.3
20200401034003 60 257 0.0 3.0 0.00 0.00 0.00 31 1009.2
20200401033510 60 278 0.0 4.0 0.00 0.00 0.00 30 1009.3
20200401033005 60 216 0.0 8.0 0.00 0.00 0.00 29 1009.2
20200401032506 60 229 4.0 8.0 0.00 0.00 0.00 29 1009.1
20200401032003 59 271 3.0 11.0 0.00 0.00 0.00 31 1009.1
20200401031510 59 241 5.0 11.0 0.00 0.00 0.00 31 1009.2
20200401031002 58 264 1.0 4.0 0.00 0.00 0.00 32 1009.2
20200401030503 59 219 1.0 2.0 0.00 0.00 0.00 31 1009.3
20200401030007 59 158 0.0 1.0 0.00 0.00 0.00 31 1009.3
20200401025501 59 262 0.0 1.0 0.00 0.00 0.00 30 1009.3
20200401025003 59 278 0.0 2.0 0.00 0.00 0.00 30 1009.2
20200401024500 59 283 0.0 2.0 0.00 0.00 0.00 30 1009.2
20200401024002 60 228 0.0 2.0 0.00 0.00 0.00 29 1009.2
20200401023245 60 225 0.0 2.0 0.00 0.00 0.00 28 1009.1
20200401022600 61 226 0.0 4.0 0.00 0.00 0.00 28 1009.2
20200401022101 61 235 1.0 5.0 0.00 0.00 0.00 27 1009.2
20200401022002 61 221 1.0 5.0 0.00 0.00 0.00 27 1009.2
20200401021806 61 220 1.0 5.0 0.00 0.00 0.00 27 1009.1
20200401021101 61 229 2.0 5.0 0.00 0.00 0.00 27 1009.2
20200401020603 61 165 1.0 8.0 0.00 0.00 0.00 27 1009.2
20200401020131 61 212 4.0 8.0 0.00 0.00 0.00 26 1009.3
20200401015604 62 194 3.0 6.0 0.00 0.00 0.00 26 1009.3
20200401015116 62 172 2.0 6.0 0.00 0.00 0.00 26 1009.3
20200401014654 62 156 1.0 5.0 0.00 0.00 0.00 26 1009.3
20200401014057 62 175 2.0 6.0 0.00 0.00 0.00 26 1009.4
20200401013556 62 191 1.0 6.0 0.00 0.00 0.00 26 1009.5
20200401013215 63 207 1.0 8.0 0.00 0.00 0.00 26 1009.5
20200401012601 63 217 4.0 8.0 0.00 0.00 0.00 25 1009.4
20200401012115 63 204 4.0 8.0 0.00 0.00 0.00 24 1009.5
20200401011559 63 183 2.0 8.0 0.00 0.00 0.00 24 1009.6
20200401011055 63 191 1.0 11.0 0.00 0.00 0.00 24 1009.7
20200401010554 63 233 4.0 11.0 0.00 0.00 0.00 24 1009.7
20200401010134 64 205 5.0 11.0 0.00 0.00 0.00 24 1009.7
20200401005554 64 219 5.0 11.0 0.00 0.00 0.00 24 1009.7
20200401005053 64 221 3.0 15.0 0.00 0.00 0.00 23 1009.7
20200401004632 64 234 9.0 15.0 0.00 0.00 0.00 23 1009.7
20200401004053 64 201 9.0 13.0 0.00 0.00 0.00 22 1009.8
20200401003553 64 240 2.0 12.0 0.00 0.00 0.00 23 1009.7
20200401003110 65 214 5.0 15.0 0.00 0.00 0.00 23 1009.8
20200401002558 65 202 6.0 17.0 0.00 0.00 0.00 23 1009.9
20200401002102 65 248 7.0 17.0 0.00 0.00 0.00 22 1009.9
20200401001650 65 191 8.0 16.0 0.00 0.00 0.00 22 1009.9
20200401001058 66 252 5.0 18.0 0.00 0.00 0.00 22 1010.0
20200401000551 66 134 4.0 12.0 0.00 0.00 0.00 21 1010.0
20200401000057 65 212 4.0 12.0 0.00 0.00 0.00 23 1010.1
20200331235549 65 255 4.0 11.0 0.00 0.00 0.00 22 1010.1
20200331235054 66 240 6.0 16.0 0.00 0.00 0.00 21 1010.2
20200331234640 66 212 7.0 16.0 0.00 0.00 0.00 22 1010.3
20200331234048 65 181 6.0 16.0 0.00 0.00 0.00 22 1010.4
20200331233547 65 283 10.0 16.0 0.00 0.00 0.00 22 1010.5
20200331233212 64 217 7.0 16.0 0.00 0.00 0.00 22 1010.5
20200331232608 65 212 7.0 17.0 0.00 0.00 0.00 22 1010.6
20200331232046 65 197 7.0 17.0 0.00 0.00 0.00 22 1010.7
20200331231634 66 238 7.0 21.0 0.00 0.00 0.00 21 1010.8
20200331231045 66 166 13.0 21.0 0.00 0.00 0.00 21 1010.8
20200331230545 66 205 9.0 16.0 0.00 0.00 0.00 21 1010.8
20200331230202 66 228 9.0 16.0 0.00 0.00 0.00 21 1010.9
20200331225546 67 262 5.0 12.0 0.00 0.00 0.00 21 1011.1
20200331225049 66 173 2.0 10.0 0.00 0.00 0.00 21 1011.1
20200331224607 66 142 1.0 13.0 0.00 0.00 0.00 21 1011.2
20200331224040 66 291 5.0 15.0 0.00 0.00 0.00 22 1011.2
20200331223539 66 267 7.0 15.0 0.00 0.00 0.00 22 1011.3
20200331222545 66 175 7.0 12.0 0.00 0.00 0.00 23 1011.6
20200331222038 65 239 2.0 12.0 0.00 0.00 0.00 23 1011.6
20200331221608 65 219 5.0 12.0 0.00 0.00 0.00 23 1011.7
20200331221044 65 195 6.0 12.0 0.00 0.00 0.00 23 1011.8
20200331220537 65 160 6.0 13.0 0.00 0.00 0.00 24 1011.9
20200331220105 66 212 8.0 13.0 0.00 0.00 0.00 23 1012.0
20200331215532 65 288 2.0 14.0 0.00 0.00 0.00 24 1012.1
20200331215031 65 173 10.0 14.0 0.00 0.00 0.00 23 1012.3
20200331214534 65 215 5.0 14.0 0.00 0.00 0.00 24 1012.4
20200331214031 64 203 7.0 20.0 0.00 0.00 0.00 24 1012.5
20200331213527 64 248 8.0 17.0 0.00 0.00 0.00 24 1012.7
20200331213104 64 250 2.0 19.0 0.00 0.00 0.00 24 1012.8
20200331212528 65 205 10.0 15.0 0.00 0.00 0.00 23 1012.9
20200331212030 65 251 7.0 13.0 0.00 0.00 0.00 24 1012.9
20200331211529 65 240 7.0 17.0 0.00 0.00 0.00 23 1013.0
20200331211028 65 230 7.0 17.0 0.00 0.00 0.00 25 1013.1
20200331210522 64 289 2.0 15.0 0.00 0.00 0.00 23 1013.1
20200331210022 63 238 6.0 15.0 0.00 0.00 0.00 25 1013.3
20200331205528 62 233 7.0 14.0 0.00 0.00 0.00 25 1013.4
20200331205032 62 247 4.0 14.0 0.00 0.00 0.00 27 1013.5
20200331204518 61 206 2.0 9.0 0.00 0.00 0.00 26 1013.6
20200331204024 61 174 5.0 12.0 0.00 0.00 0.00 27 1013.7
20200331203518 61 224 7.0 13.0 0.00 0.00 0.00 26 1013.7
20200331203024 61 297 7.0 13.0 0.00 0.00 0.00 26 1013.9
20200331202521 62 213 5.0 10.0 0.00 0.00 0.00 26 1013.9
20200331202015 62 229 5.0 12.0 0.00 0.00 0.00 27 1014.0
20200331201522 62 243 4.0 12.0 0.00 0.00 0.00 26 1014.1
20200331201024 62 207 4.0 14.0 0.00 0.00 0.00 26 1014.2
20200331200513 63 210 8.0 14.0 0.00 0.00 0.00 26 1014.3
20200331200013 62 178 4.0 11.0 0.00 0.00 0.00 27 1014.4
20200331195513 62 213 5.0 8.0 0.00 0.00 0.00 26 1014.5
20200331195010 62 122 2.0 8.0 0.00 0.00 0.00 26 1014.6
20200331194510 62 207 2.0 11.0 0.00 0.00 0.00 25 1014.7
20200331194013 62 229 5.0 11.0 0.00 0.00 0.00 25 1014.7
20200331193512 63 260 6.0 11.0 0.00 0.00 0.00 25 1014.7
20200331193011 63 237 5.0 9.0 0.00 0.00 0.00 25 1014.8
20200331192515 63 162 1.0 12.0 0.00 0.00 0.00 25 1014.9
20200331192005 63 163 6.0 12.0 0.00 0.00 0.00 25 1015.0
20200331191508 63 229 2.0 7.0 0.00 0.00 0.00 25 1015.0
20200331191006 62 226 1.0 8.0 0.00 0.00 0.00 26 1015.0
20200331190501 62 135 1.0 13.0 0.00 0.00 0.00 27 1015.2
20200331190134 61 238 3.0 13.0 0.00 0.00 0.00 28 1015.3
20200331185601 60 242 6.0 11.0 0.00 0.01 0.00 27 1015.4
20200331185105 60 172 4.0 13.0 0.00 0.01 0.00 28 1015.5
20200331184620 60 283 5.0 13.0 0.00 0.01 0.00 27 1015.6
20200331184056 60 269 3.0 9.0 0.00 0.01 0.00 29 1015.6
20200331183620 60 245 2.0 10.0 0.00 0.01 0.00 32 1015.7
20200331183202 60 130 5.0 9.0 0.00 0.01 0.00 32 1015.7
20200331182555 59 110 3.0 6.0 0.00 0.01 0.00 33 1015.8
20200331182054 59 102 0.0 8.0 0.00 0.01 0.00 33 1016.0
20200331181619 59 269 2.0 10.0 0.00 0.01 0.00 33 1016.1
20200331181054 59 171 6.0 10.0 0.00 0.01 0.00 33 1016.1
20200331180552 59 97 1.0 9.0 0.00 0.01 0.00 32 1016.1
20200331180053 60 70 4.0 10.0 0.00 0.01 0.00 34 1016.2
20200331175551 59 189 2.0 12.0 0.00 0.01 0.00 34 1016.3
20200331175051 59 144 4.0 14.0 0.00 0.01 0.00 34 1016.4
20200331174558 59 108 5.0 13.0 0.00 0.01 0.00 33 1016.4
20200331174049 60 128 6.0 15.0 0.00 0.01 0.00 34 1016.5
20200331173550 61 151 5.0 11.0 0.00 0.01 0.00 33 1016.5
20200331173135 61 127 3.0 10.0 0.00 0.01 0.00 33 1016.6
20200331172555 60 232 4.0 9.0 0.00 0.01 0.00 33 1016.5
20200331172046 60 140 4.0 9.0 0.00 0.01 0.00 31 1016.7
20200331171659 59 144 5.0 9.0 0.00 0.01 0.00 33 1016.6
20200331171044 59 157 3.0 9.0 0.00 0.01 0.00 33 1016.7
20200331170543 59 172 4.0 9.0 0.00 0.01 0.00 34 1016.8
20200331170121 59 235 4.0 12.0 0.00 0.01 0.00 35 1016.8
20200331165542 58 221 5.0 12.0 0.00 0.01 0.00 36 1016.9
20200331165040 58 170 6.0 13.0 0.00 0.01 0.00 36 1017.0
20200331164555 58 165 5.0 14.0 0.00 0.01 0.00 36 1016.9
20200331164037 58 203 6.0 14.0 0.00 0.01 0.00 37 1017.0
20200331163538 57 91 7.0 13.0 0.00 0.01 0.00 37 1017.0
20200331163047 57 155 5.0 13.0 0.00 0.01 0.00 38 1017.1
20200331162535 57 134 7.0 13.0 0.00 0.01 0.00 36 1017.1
20200331161533 57 134 5.0 12.0 0.00 0.01 0.00 38 1017.2
20200331161032 56 205 5.0 12.0 0.00 0.01 0.00 38 1017.3
20200331160531 56 155 7.0 14.0 0.00 0.01 0.00 38 1017.3
20200331160100 56 150 7.0 17.0 0.00 0.01 0.00 38 1017.4
20200331155530 56 203 9.0 17.0 0.00 0.01 0.00 38 1017.3
20200331155029 55 141 8.0 14.0 0.00 0.01 0.00 38 1017.4
20200331154529 55 196 6.0 20.0 0.00 0.01 0.00 39 1017.4
20200331154028 55 194 11.0 19.0 0.00 0.01 0.00 39 1017.4
20200331153528 55 207 8.0 15.0 0.00 0.01 0.00 39 1017.4
20200331153143 55 201 6.0 14.0 0.00 0.01 0.00 40 1017.5
20200331152526 55 160 5.0 14.0 0.00 0.01 0.00 40 1017.5
20200331152029 54 160 6.0 13.0 0.00 0.01 0.00 41 1017.5
20200331151536 54 193 7.0 13.0 0.00 0.01 0.00 42 1017.6
20200331151033 54 175 6.0 16.0 0.00 0.01 0.00 42 1017.6
20200331150524 53 207 8.0 16.0 0.00 0.01 0.00 42 1017.8
20200331150054 53 171 7.0 15.0 0.00 0.01 0.00 43 1017.7
20200331145518 52 180 9.0 15.0 0.00 0.01 0.00 44 1017.9
20200331145035 52 181 4.0 12.0 0.00 0.01 0.00 45 1017.9
20200331144532 51 226 5.0 12.0 0.00 0.01 0.00 46 1017.9
20200331144019 50 193 5.0 11.0 0.00 0.01 0.00 46 1017.9
20200331143522 50 195 5.0 12.0 0.00 0.01 0.00 47 1018.0
20200331143038 50 167 5.0 12.0 0.00 0.01 0.00 48 1018.1
20200331142514 49 160 7.0 12.0 0.00 0.01 0.00 49 1017.9
20200331142014 48 240 2.0 12.0 0.00 0.01 0.00 51 1017.8
20200331141515 48 245 6.0 15.0 0.00 0.01 0.00 52 1017.9
20200331141016 48 259 8.0 15.0 0.00 0.01 0.00 51 1017.9
20200331140518 49 244 7.0 14.0 0.00 0.01 0.00 49 1017.9
20200331140014 49 210 5.0 14.0 0.00 0.01 0.00 47 1017.8
20200331135514 50 161 7.0 15.0 0.00 0.01 0.00 47 1017.8
20200331135011 49 162 9.0 17.0 0.00 0.01 0.00 47 1017.7
20200331134535 49 158 9.0 17.0 0.00 0.01 0.00 47 1017.7
20200331134011 49 205 7.0 18.0 0.00 0.01 0.00 47 1017.5
20200331133510 49 121 9.0 15.0 0.00 0.01 0.00 47 1017.3
20200331133021 49 137 9.0 18.0 0.00 0.01 0.00 46 1017.4
20200331132522 49 195 10.0 18.0 0.00 0.01 0.00 47 1017.3
20200331132010 49 181 10.0 17.0 0.00 0.01 0.00 47 1017.5
20200331131510 49 173 6.0 12.0 0.00 0.01 0.00 47 1017.6
20200331131012 49 161 5.0 12.0 0.00 0.01 0.00 48 1017.5
20200331130510 49 127 7.0 12.0 0.00 0.01 0.00 49 1017.6
20200331130027 49 146 4.0 11.0 0.00 0.01 0.00 49 1017.6
20200331125511 49 184 5.0 11.0 0.00 0.01 0.00 49 1017.6
20200331125008 49 186 4.0 10.0 0.00 0.01 0.00 50 1017.6
20200331124508 49 184 4.0 12.0 0.00 0.01 0.00 49 1017.5
20200331124022 49 224 5.0 12.0 0.00 0.01 0.00 48 1017.5
20200331123507 49 168 5.0 13.0 0.00 0.01 0.00 47 1017.4
20200331123030 49 175 6.0 15.0 0.00 0.01 0.00 47 1017.3
20200331122514 49 188 6.0 14.0 0.00 0.01 0.00 48 1017.3
20200331122006 49 189 5.0 14.0 0.00 0.01 0.00 49 1017.3
20200331121509 49 155 7.0 14.0 0.00 0.01 0.00 49 1017.5
20200331121016 49 172 8.0 14.0 0.00 0.01 0.00 49 1017.5
20200331120509 49 124 8.0 14.0 0.00 0.01 0.00 49 1017.5
20200331120007 49 176 7.0 14.0 0.00 0.01 0.00 49 1017.6
20200331115504 49 167 5.0 18.0 0.00 0.01 0.00 49 1017.6
20200331115004 49 132 7.0 18.0 0.00 0.01 0.00 49 1017.6
20200331114504 49 139 8.0 14.0 0.00 0.01 0.00 49 1017.6
20200331114007 49 212 7.0 14.0 0.00 0.01 0.00 49 1017.6
20200331113503 49 158 6.0 14.0 0.00 0.01 0.00 50 1017.7
20200331113003 49 168 6.0 14.0 0.00 0.01 0.00 49 1017.7
20200331112503 49 160 7.0 14.0 0.00 0.01 0.00 49 1017.6
20200331112006 49 204 6.0 17.0 0.00 0.01 0.00 49 1017.8
20200331111506 49 151 10.0 17.0 0.00 0.01 0.00 49 1017.6
20200331111002 49 139 10.0 21.0 0.00 0.01 0.00 49 1017.8
20200331110502 49 173 8.0 21.0 0.00 0.01 0.00 49 1017.8
20200331110151 49 162 10.0 20.0 0.00 0.01 0.00 49 1017.8
20200331105559 49 151 9.0 18.0 0.00 0.02 0.00 49 1017.8
20200331105059 49 136 9.0 20.0 0.00 0.02 0.00 48 1017.8
20200331104625 49 146 10.0 20.0 0.00 0.02 0.00 48 1017.8
20200331104103 49 153 11.0 20.0 0.00 0.02 0.00 47 1017.8
20200331103600 49 135 8.0 17.0 0.00 0.02 0.00 46 1017.8
20200331103121 49 150 9.0 17.0 0.00 0.02 0.00 46 1017.9
20200331102557 49 147 8.0 14.0 0.00 0.02 0.00 46 1017.9
20200331102057 49 160 7.0 15.0 0.00 0.02 0.00 46 1017.9
20200331101717 49 150 8.0 15.0 0.00 0.02 0.00 46 1017.9